Dushanbe, Tajikistan

4:46 PM +05 on September 22, 2018 (GMT +0500)
Dushanbe

Weather History for UTDD - July, 2018

Change the Weather History Date:

Thursday, July 12, 2018

  Actual Average Record
Temperature  
Mean Temperature 86 °F -  
Max Temperature 105 °F - - ()
Min Temperature 66 °F - - ()
Cooling Degree Days 20    
Growing Degree Days 36 (Base 50)    
Moisture  
Dew Point 48 °F    
Average Humidity 26    
Maximum Humidity 66    
Minimum Humidity 10    
Precipitation  
Precipitation 0.00 in 0.00 in - ()
Sea Level Pressure  
Sea Level Pressure 29.59 in    
Wind  
Wind Speed 5 mph ()    
Max Wind Speed 13 mph    
Max Gust Speed 18 mph    
Visibility 6.0 miles    
Events      
T = Trace of Precipitation, MM = Missing Value Source: Averaged Metar Reports

Daily Weather History Graph

Daily Weather History Graph

Search for Another Location

Airport or City:

Astronomy

Jul. 12, 2018 Rise Set
Actual Time 5:10 AM +05 7:50 PM +05
Civil Twilight 4:39 AM +05 8:21 PM +05
Nautical Twilight 4:00 AM +05 9:00 PM +05
Astronomical Twilight 3:16 AM +05 9:43 PM +05
Moon 4:10 AM +05 (7/12) 7:06 PM +05 (7/12)
Length of Visible Light 15h 41m
Length of Day
14h 39m
Waning Crescent, 1% of the Moon is Illuminated
Jul 12
Waning Crescent
Jul 13
New
Jul 20
First Quarter
Jul 28
Full
Aug 4
Last Quarter

Hourly Weather History & Observations

Time (+05) Temp. Heat Index Dew Point Humidity Pressure Visibility Wind Dir Wind Speed Gust Speed Precip Events Conditions
12:00 AM 78.8 °F - 51.8 °F 39% 29.62 in 6.2 mi ESE 4.5 mph - N/A   Unknown
12:30 AM 78.8 °F - 50.0 °F 36% 29.62 in 6.2 mi East 6.7 mph - N/A   Unknown
1:00 AM 80.6 °F - 48.2 °F 32% 29.59 in 6.2 mi Variable 2.2 mph - N/A   Unknown
1:30 AM 80.6 °F - 48.2 °F 32% 29.59 in 6.2 mi ESE 2.2 mph - N/A   Unknown
2:00 AM 69 °F - 57 °F 56% 29.63 in - Calm Calm - -   Clear
2:00 AM 78.8 °F - 50.0 °F 36% 29.59 in 6.2 mi Variable 2.2 mph - N/A   Unknown
2:30 AM 77.0 °F - 48.2 °F 36% 29.59 in 6.2 mi East 2.2 mph - N/A   Unknown
3:00 AM 77.0 °F - 48.2 °F 36% 29.59 in 6.2 mi Variable 4.5 mph - N/A   Unknown
3:30 AM 77.0 °F - 48.2 °F 36% 29.59 in 6.2 mi Variable 2.2 mph - N/A   Unknown
4:00 AM 77.0 °F - 48.2 °F 36% 29.59 in 6.2 mi Variable 2.2 mph - N/A   Unknown
4:30 AM 75.2 °F - 46.4 °F 36% 29.59 in 6.2 mi ENE 4.5 mph - N/A   Unknown
5:00 AM 67 °F - 58 °F 66% 29.62 in 31 mi Calm Calm - -   Scattered Clouds
5:00 AM 75.2 °F - 46.4 °F 36% 29.59 in 6.2 mi ENE 4.5 mph - N/A   Unknown
5:30 AM 77.0 °F - 44.6 °F 32% 29.62 in 6.2 mi ENE 4.5 mph - N/A   Unknown
6:00 AM 75.2 °F - 48.2 °F 38% 29.62 in 6.2 mi East 4.5 mph - N/A   Unknown
6:30 AM 78.8 °F - 48.2 °F 34% 29.62 in 6.2 mi East 4.5 mph - N/A   Unknown
7:00 AM 78.8 °F - 50.0 °F 36% 29.62 in 6.2 mi East 4.5 mph - N/A   Unknown
7:30 AM 82.4 °F - 50.0 °F 32% 29.65 in 6.2 mi Variable 4.5 mph - N/A   Unknown
8:00 AM 86 °F - 54 °F 23% 29.59 in 31 mi Calm Calm - -   Clear
8:00 AM 84.2 °F - 51.8 °F 33% 29.65 in 6.2 mi ESE 6.7 mph - N/A   Unknown
8:30 AM 87.8 °F - 50.0 °F 27% 29.65 in 6.2 mi East 6.7 mph - N/A   Unknown
9:00 AM 91.4 °F - 51.8 °F 26% 29.65 in 5.0 mi Variable 4.5 mph - N/A   Unknown
9:30 AM 95.0 °F - 48.2 °F 20% 29.65 in 6.2 mi East 11.2 mph - N/A   Unknown
10:00 AM 96.8 °F - 42.8 °F 16% 29.65 in 6.2 mi East 11.2 mph - N/A   Unknown
10:30 AM 96.8 °F - 41.0 °F 15% 29.65 in 6.2 mi East 11.2 mph - N/A   Unknown
11:00 AM 101 °F - 53 °F 12% 29.49 in 31 mi Calm Calm - -   Clear
11:00 AM 98.6 °F - 39.2 °F 13% 29.65 in 6.2 mi East 11.2 mph - N/A   Unknown
11:30 AM 100.4 °F - 42.8 °F 14% 29.62 in 6.2 mi East 11.2 mph - N/A   Unknown
12:00 PM 100.4 °F - 39.2 °F 12% 29.62 in 6.2 mi East 8.9 mph - N/A   Unknown
12:30 PM 100.4 °F - 42.8 °F 14% 29.62 in 6.2 mi SE 6.7 mph - N/A   Unknown
1:00 PM 102.2 °F - 42.8 °F 13% 29.62 in 6.2 mi Variable 6.7 mph - N/A   Unknown
1:30 PM 102.2 °F - 41.0 °F 12% 29.62 in 6.2 mi SSW 6.7 mph 17.9 mph N/A   Unknown
2:00 PM 105 °F - 53 °F 11% 29.39 in 31 mi Calm Calm - -   Clear
2:00 PM 102.2 °F - 42.8 °F 13% 29.59 in 6.2 mi SSW 6.7 mph - N/A   Unknown
2:30 PM 104.0 °F - 42.8 °F 12% 29.59 in 6.2 mi Variable 2.2 mph - N/A   Unknown
3:00 PM 104.0 °F - 44.6 °F 13% 29.59 in 6.2 mi Variable 4.5 mph - N/A   Unknown
3:30 PM 102.2 °F - 50.0 °F 17% 29.59 in 6.2 mi West 11.2 mph - N/A   Unknown
4:00 PM 100.4 °F - 50.0 °F 18% 29.56 in 6.2 mi WNW 11.2 mph - N/A   Unknown
4:30 PM 100.4 °F - 48.2 °F 17% 29.56 in 6.2 mi West 13.4 mph - N/A   Unknown
5:00 PM 101 °F - 49 °F 10% 29.40 in 31 mi South 11.2 mph - -   Clear
5:00 PM 98.6 °F - 48.2 °F 18% 29.56 in 6.2 mi West 13.4 mph - N/A   Unknown
5:30 PM 98.6 °F - 46.4 °F 17% 29.56 in 6.2 mi West 13.4 mph - N/A   Unknown
6:00 PM 96.8 °F - 46.4 °F 18% 29.56 in 6.2 mi West 11.2 mph - N/A   Unknown
6:30 PM 95.0 °F - 44.6 °F 18% 29.56 in 6.2 mi WNW 11.2 mph - N/A   Partly Cloudy
7:00 PM 95.0 °F - 44.6 °F 18% 29.59 in 6.2 mi WNW 8.9 mph - N/A   Partly Cloudy
7:30 PM 91.4 °F - 48.2 °F 23% 29.59 in 5.6 mi Variable 4.5 mph - N/A   Scattered Clouds
8:00 PM 91 °F - 44 °F 11% 29.47 in 31 mi Calm Calm - -   Clear
8:00 PM 91.4 °F - 50.0 °F 24% 29.59 in 5.6 mi Variable 2.2 mph - N/A   Partly Cloudy
8:30 PM 89.6 °F - 50.0 °F 26% 29.59 in 5.6 mi Variable 2.2 mph - N/A   Partly Cloudy
9:00 PM 87.8 °F 85.7 °F 53.6 °F 31% 29.59 in 5.0 mi Variable 2.2 mph - N/A   Unknown
9:30 PM 87.8 °F - 50.0 °F 27% 29.59 in 5.6 mi NNE 4.5 mph - N/A   Unknown
10:00 PM 84.2 °F - 48.2 °F 29% 29.62 in 5.6 mi East 6.7 mph - N/A   Partly Cloudy
10:30 PM 80.6 °F - 50.0 °F 34% 29.62 in 4.3 mi East 4.5 mph - N/A   Scattered Clouds
11:00 PM 75 °F - 52 °F 34% 29.57 in - Calm Calm - -   Clear
11:00 PM 80.6 °F 80.3 °F 53.6 °F 39% 29.62 in 4.3 mi East 4.5 mph - N/A   Partly Cloudy
11:30 PM 80.6 °F 80.3 °F 53.6 °F 39% 29.62 in 4.3 mi ENE 4.5 mph - N/A   Unknown